Washington, IA

8:07 AM CDT on September 25, 2016 (GMT -0500)
Washington Municipal

Weather History for KAWG - October, 2012

Change the Weather History Date:

Wednesday, October 24, 2012

  Actual Average Record
Temperature  
Mean Temperature 71 °F -  
Max Temperature 80 °F 58 °F 80 °F (2012)
Min Temperature 62 °F 40 °F 23 °F (2006)
Cooling Degree Days 6    
Growing Degree Days 21 (Base 50)    
Moisture  
Dew Point 62 °F    
Average Humidity 76    
Maximum Humidity 94    
Minimum Humidity 54    
Precipitation  
Precipitation 0.00 in - - ()
Sea Level Pressure  
Sea Level Pressure 29.80 in    
Wind  
Wind Speed 10 mph (South)    
Max Wind Speed 22 mph    
Max Gust Speed 26 mph    
Visibility 10 miles    
Events Rain    
Averages and records for this station are not official NWS values.
T = Trace of Precipitation, MM = Missing Value Source: NWS Daily Summary

Daily Weather History Graph

Daily Weather History Graph

Search for Another Location

Airport or City:

Trip Planner

Search our weather history database for the weather conditions in past years. The results will help you decide how hot, cold, wet, or windy it might be!

Date:

Astronomy

Oct. 24, 2012 Rise Set
Actual Time 7:29 AM CDT 6:11 PM CDT
Civil Twilight 7:00 AM CDT 6:40 PM CDT
Nautical Twilight 6:28 AM CDT 7:12 PM CDT
Astronomical Twilight 5:56 AM CDT 7:44 PM CDT
Moon 3:30 PM CDT (10/24) 2:21 AM CDT (10/24)
Length of Visible Light 11h 39m
Length of Day
10h 42m
Waxing Gibbous, 76% of the Moon is Illuminated
Oct 24
Waxing Gibbous
Oct 29
Full
Nov 6
Last Quarter
Nov 13
New
Nov 20
First Quarter

Hourly Weather History & Observations

Time (CDT) Temp. Heat Index Dew Point Humidity Pressure Visibility Wind Dir Wind Speed Gust Speed Precip Events Conditions
12:15 AM 64.4 °F - 62.6 °F 94% 29.84 in 10.0 mi SE 5.8 mph - N/A   Mostly Cloudy
12:35 AM 64.4 °F - 62.6 °F 94% 29.84 in 10.0 mi SSE 8.1 mph - N/A Rain Light Rain
12:55 AM 64.4 °F - 62.6 °F 94% 29.84 in 10.0 mi SE 5.8 mph - N/A   Mostly Cloudy
1:15 AM 64.4 °F - 62.6 °F 94% 29.84 in 10.0 mi SSE 6.9 mph - N/A   Mostly Cloudy
1:35 AM 64.4 °F - 62.6 °F 94% 29.84 in 10.0 mi SSE 8.1 mph - N/A   Scattered Clouds
1:55 AM 64.4 °F - 62.6 °F 94% 29.84 in 10.0 mi South 6.9 mph - N/A   Clear
2:15 AM 64.4 °F - 60.8 °F 88% 29.84 in 10.0 mi SSE 5.8 mph - N/A   Clear
2:35 AM 62.6 °F - 60.8 °F 94% 29.84 in 10.0 mi South 3.5 mph - N/A   Scattered Clouds
2:55 AM 62.6 °F - 60.8 °F 94% 29.84 in 10.0 mi South 3.5 mph - N/A   Unknown
3:15 AM 64.4 °F - 62.6 °F 94% 29.84 in 10.0 mi South 4.6 mph - N/A   Overcast
3:35 AM 64.4 °F - 62.6 °F 94% 29.84 in 10.0 mi South 4.6 mph - N/A   Overcast
3:55 AM 64.4 °F - 62.6 °F 94% 29.84 in 10.0 mi South 4.6 mph - N/A   Overcast
4:15 AM 64.4 °F - 62.6 °F 94% 29.84 in 10.0 mi South 6.9 mph - N/A   Scattered Clouds
4:35 AM 64.4 °F - 62.6 °F 94% 29.84 in 10.0 mi South 5.8 mph - N/A   Scattered Clouds
4:55 AM 64.4 °F - 62.6 °F 94% 29.84 in 7.0 mi South 5.8 mph - N/A   Scattered Clouds
5:15 AM 64.4 °F - 62.6 °F 94% 29.84 in 10.0 mi South 6.9 mph - N/A   Clear
5:35 AM 64.4 °F - 62.6 °F 94% 29.84 in 10.0 mi South 8.1 mph - N/A   Clear
5:55 AM 64.4 °F - 62.6 °F 94% 29.85 in 10.0 mi South 8.1 mph - N/A   Clear
6:15 AM 64.4 °F - 62.6 °F 94% 29.85 in 10.0 mi South 9.2 mph - N/A   Clear
6:35 AM 64.4 °F - 62.6 °F 94% 29.85 in 10.0 mi South 8.1 mph - N/A   Clear
6:55 AM 64.4 °F - 62.6 °F 94% 29.84 in 10.0 mi South 10.4 mph - N/A   Clear
7:15 AM 64.4 °F - 62.6 °F 94% 29.85 in 10.0 mi South 10.4 mph - N/A   Clear
7:35 AM 64.4 °F - 62.6 °F 94% 29.85 in 10.0 mi South 9.2 mph - N/A   Clear
7:55 AM 64.4 °F - 62.6 °F 94% 29.85 in 10.0 mi South 8.1 mph - N/A   Clear
8:15 AM 66.2 °F - 62.6 °F 88% 29.86 in 10.0 mi South 6.9 mph - N/A   Scattered Clouds
8:35 AM 66.2 °F - 62.6 °F 88% 29.86 in 10.0 mi South 8.1 mph - N/A   Clear
8:55 AM 68.0 °F - 62.6 °F 83% 29.86 in 10.0 mi South 8.1 mph - N/A   Clear
9:15 AM 68.0 °F - 62.6 °F 83% 29.86 in 10.0 mi South 10.4 mph - N/A   Clear
9:35 AM 69.8 °F - 62.6 °F 78% 29.86 in 10.0 mi SSW 11.5 mph - N/A   Clear
9:55 AM 71.6 °F - 62.6 °F 73% 29.86 in 10.0 mi South 13.8 mph - N/A   Clear
10:15 AM 71.6 °F - 62.6 °F 73% 29.86 in 10.0 mi SSW 11.5 mph - N/A   Clear
10:35 AM 73.4 °F - 62.6 °F 69% 29.85 in 10.0 mi SSW 12.7 mph - N/A   Clear
10:55 AM 75.2 °F - 64.4 °F 69% 29.85 in 10.0 mi SSW 18.4 mph - N/A   Clear
11:15 AM 73.4 °F - 64.4 °F 73% 29.85 in 10.0 mi SSW 16.1 mph 21.9 mph N/A   Scattered Clouds
11:35 AM 75.2 °F - 64.4 °F 69% 29.85 in 10.0 mi South 18.4 mph - N/A   Mostly Cloudy
11:55 AM 73.4 °F - 62.6 °F 69% 29.85 in 10.0 mi SSW 18.4 mph - N/A   Overcast
12:15 PM 75.2 °F - 62.6 °F 65% 29.84 in 10.0 mi SSW 18.4 mph 21.9 mph N/A   Scattered Clouds
12:35 PM 75.2 °F - 62.6 °F 65% 29.82 in 10.0 mi SSW 16.1 mph 19.6 mph N/A   Clear
12:55 PM 77.0 °F - 62.6 °F 61% 29.81 in 10.0 mi South 17.3 mph - N/A   Clear
1:15 PM 78.8 °F - 62.6 °F 57% 29.79 in 10.0 mi South 17.3 mph 21.9 mph N/A   Clear
1:35 PM 78.8 °F - 62.6 °F 57% 29.78 in 10.0 mi South 13.8 mph 20.7 mph N/A   Clear
1:55 PM 78.8 °F - 62.6 °F 57% 29.77 in 10.0 mi South 15.0 mph 25.3 mph N/A   Clear
2:15 PM 80.6 °F 81.8 °F 62.6 °F 54% 29.76 in 10.0 mi South 20.7 mph 25.3 mph N/A   Clear
2:35 PM 80.6 °F 82.3 °F 64.4 °F 58% 29.76 in 10.0 mi South 18.4 mph 25.3 mph N/A   Clear
2:55 PM 80.6 °F 82.3 °F 64.4 °F 58% 29.76 in 10.0 mi South 16.1 mph 24.2 mph N/A   Clear
3:15 PM 80.6 °F 81.8 °F 62.6 °F 54% 29.76 in 10.0 mi South 20.7 mph - N/A   Clear
3:35 PM 80.6 °F 82.3 °F 64.4 °F 58% 29.76 in 10.0 mi South 15.0 mph - N/A   Clear
4:15 PM 80.6 °F 81.8 °F 62.6 °F 54% 29.75 in 10.0 mi South 21.9 mph 26.5 mph N/A   Clear
4:35 PM 78.8 °F - 62.6 °F 57% 29.75 in 10.0 mi South 17.3 mph 25.3 mph N/A   Clear
4:55 PM 78.8 °F - 62.6 °F 57% 29.76 in 10.0 mi South 13.8 mph - N/A   Clear
5:15 PM 78.8 °F - 62.6 °F 57% 29.76 in 10.0 mi South 18.4 mph 25.3 mph N/A   Clear
5:35 PM 78.8 °F - 62.6 °F 57% 29.76 in 10.0 mi South 15.0 mph 21.9 mph N/A   Clear
5:55 PM 75.2 °F - 62.6 °F 65% 29.76 in 10.0 mi South 16.1 mph 24.2 mph N/A   Clear
6:15 PM 75.2 °F - 62.6 °F 65% 29.76 in 10.0 mi South 13.8 mph - N/A   Clear
6:35 PM 73.4 °F - 62.6 °F 69% 29.76 in 10.0 mi South 11.5 mph - N/A   Clear
6:55 PM 73.4 °F - 62.6 °F 69% 29.76 in 10.0 mi South 12.7 mph - N/A   Clear
7:15 PM 73.4 °F - 62.6 °F 69% 29.76 in 10.0 mi South 12.7 mph - N/A   Clear
7:35 PM 73.4 °F - 62.6 °F 69% 29.75 in 10.0 mi South 13.8 mph - N/A   Clear
7:55 PM 73.4 °F - 62.6 °F 69% 29.75 in 10.0 mi South 15.0 mph 18.4 mph N/A   Clear
8:15 PM 73.4 °F - 62.6 °F 69% 29.76 in 10.0 mi South 13.8 mph 18.4 mph N/A   Clear
8:35 PM 73.4 °F - 62.6 °F 69% 29.76 in 10.0 mi South 15.0 mph 18.4 mph N/A   Clear
8:55 PM 71.6 °F - 62.6 °F 73% 29.76 in 10.0 mi South 12.7 mph - N/A   Clear
9:15 PM 71.6 °F - 62.6 °F 73% 29.76 in 10.0 mi South 10.4 mph - N/A   Clear
9:35 PM 71.6 °F - 62.6 °F 73% 29.76 in 10.0 mi South 10.4 mph - N/A   Clear
9:55 PM 71.6 °F - 60.8 °F 69% 29.75 in 10.0 mi South 11.5 mph - N/A   Clear
10:15 PM 73.4 °F - 60.8 °F 65% 29.75 in 10.0 mi South 15.0 mph 19.6 mph N/A   Clear
10:35 PM 73.4 °F - 60.8 °F 65% 29.74 in 10.0 mi South 13.8 mph - N/A   Clear
10:55 PM 71.6 °F - 60.8 °F 69% 29.74 in 10.0 mi South 13.8 mph - N/A   Clear
11:15 PM 71.6 °F - 60.8 °F 69% 29.73 in 10.0 mi South 16.1 mph 19.6 mph N/A   Clear
11:35 PM 71.6 °F - 60.8 °F 69% 29.73 in 10.0 mi South 16.1 mph 19.6 mph N/A   Clear
11:55 PM 71.6 °F - 60.8 °F 69% 29.72 in 10.0 mi South 16.1 mph - N/A   Clear